| time (UTC) | temp C | wind direction | speed KPH | gust KPH | rain 1hr cm | rain 24hr cm | rain mn cm | humidity % | barometer mb |
| 20260906224037 | 9 | 0.0 | 0.0 | 0.00 | 0.00 | 0.00 | 82 | 1027.5 | |
| 20260906223106 | 9 | 0.0 | 0.0 | 0.00 | 0.00 | 0.00 | 82 | 1027.1 | |
| 20260906222019 | 10 | 0.0 | 0.0 | 0.00 | 0.00 | 0.00 | 82 | 1027.2 | |
| 20260906221027 | 10 | 0.0 | 0.0 | 0.00 | 0.00 | 0.00 | 81 | 1027.1 | |
| 20260906220048 | 10 | 0.0 | 0.0 | 0.00 | 0.00 | 0.00 | 80 | 1027.1 | |
| 20260906215056 | 10 | 0.0 | 0.0 | 0.00 | 0.00 | 0.00 | 80 | 1027.1 | |
| 20260906214023 | 10 | 0.0 | 0.0 | 0.00 | 0.00 | 0.00 | 80 | 1027.0 | |
| 20260906213023 | 10 | 0.0 | 0.0 | 0.00 | 0.00 | 0.00 | 79 | 1027.0 | |
| 20260906212024 | 10 | 0.0 | 0.0 | 0.00 | 0.00 | 0.00 | 79 | 1027.1 | |
| 20260906211023 | 10 | 0.0 | 0.0 | 0.00 | 0.00 | 0.00 | 78 | 1026.7 | |
| 20260906210024 | 11 | 0.0 | 0.0 | 0.00 | 0.00 | 0.00 | 77 | 1027.1 | |
| 20260906205028 | 11 | 0.0 | 0.0 | 0.00 | 0.00 | 0.00 | 76 | 1027.1 | |
| 20260906204056 | 11 | 0.0 | 0.0 | 0.00 | 0.00 | 0.00 | 77 | 1027.1 | |
| 20260906203114 | 11 | 0.0 | 0.0 | 0.00 | 0.00 | 0.00 | 76 | 1026.8 | |
| 20260906202037 | 11 | 0.0 | 0.0 | 0.00 | 0.00 | 0.00 | 75 | 1026.8 | |
| 20260906201026 | 11 | 0.0 | 0.0 | 0.00 | 0.00 | 0.00 | 75 | 1027.0 | |
| 20260906200025 | 11 | 0.0 | 0.0 | 0.00 | 0.00 | 0.00 | 74 | 1027.0 | |
| 20260906195022 | 11 | 0.0 | 0.0 | 0.00 | 0.00 | 0.00 | 74 | 1027.1 | |
| 20260906194054 | 11 | 0.0 | 0.0 | 0.00 | 0.00 | 0.00 | 73 | 1026.7 | |
| 20260906193027 | 12 | 0.0 | 0.0 | 0.00 | 0.00 | 0.00 | 72 | 1027.0 | |
| 20260906192205 | 12 | 0.0 | 0.0 | 0.00 | 0.00 | 0.00 | 71 | 1027.1 | |
| 20260906191033 | 12 | 0.0 | 0.0 | 0.00 | 0.00 | 0.00 | 70 | 1026.8 | |
| 20260906190025 | 13 | 0.0 | 0.0 | 0.00 | 0.00 | 0.00 | 68 | 1026.8 | |
| 20260906185025 | 13 | 0.0 | 0.0 | 0.00 | 0.00 | 0.00 | 67 | 1026.8 | |
| 20260906184026 | 13 | 0.0 | 0.0 | 0.00 | 0.00 | 0.00 | 66 | 1026.7 | |
| 20260906183024 | 13 | 0.0 | 0.0 | 0.00 | 0.00 | 0.00 | 65 | 1026.7 | |
| 20260906182024 | 14 | 0.0 | 0.0 | 0.00 | 0.00 | 0.00 | 64 | 1026.7 | |
| 20260906181105 | 15 | 0.0 | 0.0 | 0.00 | 0.00 | 0.00 | 62 | 1026.6 | |
| 20260906180024 | 15 | 0.0 | 0.0 | 0.00 | 0.00 | 0.00 | 62 | 1026.2 | |
| 20260906175025 | 15 | 0.0 | 0.0 | 0.00 | 0.00 | 0.00 | 61 | 1026.3 | |
| 20260906174028 | 16 | 0.0 | 0.0 | 0.00 | 0.00 | 0.00 | 60 | 1026.2 | |
| 20260906173033 | 16 | 0.0 | 0.0 | 0.00 | 0.00 | 0.00 | 59 | 1025.9 | |
| 20260906172034 | 16 | 0.0 | 0.0 | 0.00 | 0.00 | 0.00 | 57 | 1025.9 | |
| 20260906171053 | 17 | 0.0 | 0.0 | 0.00 | 0.00 | 0.00 | 57 | 1025.8 | |
| 20260906170029 | 17 | 0.0 | 0.0 | 0.00 | 0.00 | 0.00 | 56 | 1025.5 | |
| 20260906165024 | 17 | 0.0 | 0.0 | 0.00 | 0.00 | 0.00 | 55 | 1025.5 | |
| 20260906164033 | 18 | 0.0 | 0.0 | 0.00 | 0.00 | 0.00 | 53 | 1025.6 | |
| 20260906163026 | 18 | 0.0 | 0.0 | 0.00 | 0.00 | 0.00 | 52 | 1026.0 | |
| 20260906162050 | 19 | 154 | 0.0 | 0.0 | 0.00 | 0.00 | 0.00 | 50 | 1026.0 |
| 20260906161026 | 20 | 301 | 0.0 | 0.0 | 0.00 | 0.00 | 0.00 | 51 | 1025.7 |
| 20260906160026 | 20 | 0.0 | 0.0 | 0.00 | 0.00 | 0.00 | 50 | 1025.7 | |
| 20260906155024 | 21 | 346 | 0.0 | 0.0 | 0.00 | 0.00 | 0.00 | 49 | 1025.8 |
| 20260906154042 | 21 | 341 | 0.0 | 1.6 | 0.00 | 0.00 | 0.00 | 46 | 1026.2 |
| 20260906153023 | 23 | 224 | 0.0 | 0.0 | 0.00 | 0.00 | 0.00 | 44 | 1025.9 |
| 20260906152029 | 23 | 355 | 0.0 | 1.6 | 0.00 | 0.00 | 0.00 | 42 | 1026.0 |
| 20260906151026 | 24 | 353 | 0.0 | 3.2 | 0.00 | 0.00 | 0.00 | 42 | 1026.0 |
| 20260906150017 | 24 | 26 | 0.0 | 0.0 | 0.00 | 0.00 | 0.00 | 42 | 1026.0 |
| 20260906145043 | 24 | 266 | 0.0 | 1.6 | 0.00 | 0.00 | 0.00 | 42 | 1026.0 |
| 20260906144118 | 24 | 41 | 0.0 | 0.0 | 0.00 | 0.00 | 0.00 | 43 | 1026.1 |
| 20260906143049 | 24 | 14 | 0.0 | 3.2 | 0.00 | 0.00 | 0.00 | 43 | 1026.1 |
| 20260906142026 | 25 | 299 | 0.0 | 0.0 | 0.00 | 0.00 | 0.00 | 42 | 1026.1 |
| 20260906141044 | 25 | 275 | 0.0 | 0.0 | 0.00 | 0.00 | 0.00 | 42 | 1026.1 |
| 20260906140032 | 25 | 201 | 0.0 | 0.0 | 0.00 | 0.00 | 0.00 | 43 | 1026.1 |
| 20260906135025 | 24 | 334 | 0.0 | 4.8 | 0.00 | 0.00 | 0.00 | 43 | 1026.1 |
| 20260906134023 | 24 | 280 | 1.6 | 4.8 | 0.00 | 0.00 | 0.00 | 43 | 1026.1 |
| 20260906133024 | 23 | 232 | 0.0 | 6.4 | 0.00 | 0.00 | 0.00 | 44 | 1026.1 |
| 20260906132027 | 23 | 346 | 1.6 | 4.8 | 0.00 | 0.00 | 0.00 | 44 | 1026.1 |
| 20260906131024 | 23 | 325 | 0.0 | 1.6 | 0.00 | 0.00 | 0.00 | 45 | 1026.4 |
| 20260906130114 | 22 | 11 | 0.0 | 0.0 | 0.00 | 0.00 | 0.00 | 45 | 1026.0 |
| 20260906125024 | 22 | 298 | 0.0 | 1.6 | 0.00 | 0.00 | 0.00 | 46 | 1026.0 |
| 20260906124055 | 21 | 280 | 1.6 | 6.4 | 0.00 | 0.00 | 0.00 | 47 | 1026.0 |
| 20260906123031 | 21 | 248 | 1.6 | 4.8 | 0.00 | 0.00 | 0.00 | 48 | 1026.4 |
| 20260906122033 | 21 | 304 | 0.0 | 1.6 | 0.00 | 0.00 | 0.00 | 48 | 1026.4 |
| 20260906121036 | 21 | 347 | 0.0 | 1.6 | 0.00 | 0.00 | 0.00 | 48 | 1026.4 |
| 20260906120042 | 21 | 92 | 0.0 | 0.0 | 0.00 | 0.00 | 0.00 | 48 | 1026.7 |
| 20260906115042 | 21 | 348 | 0.0 | 3.2 | 0.00 | 0.00 | 0.00 | 48 | 1026.7 |
| 20260906114022 | 21 | 344 | 0.0 | 0.0 | 0.00 | 0.00 | 0.00 | 49 | 1026.8 |
| 20260906113022 | 21 | 7 | 1.6 | 4.8 | 0.00 | 0.00 | 0.00 | 48 | 1026.4 |
| 20260906112111 | 21 | 228 | 0.0 | 6.4 | 0.00 | 0.00 | 0.00 | 49 | 1026.4 |
| 20260906111032 | 21 | 274 | 0.0 | 1.6 | 0.00 | 0.00 | 0.00 | 49 | 1026.8 |
| 20260906110109 | 22 | 237 | 0.0 | 3.2 | 0.00 | 0.00 | 0.00 | 48 | 1026.8 |
| 20260906105052 | 21 | 336 | 0.0 | 1.6 | 0.00 | 0.00 | 0.00 | 50 | 1026.7 |
| 20260906104023 | 20 | 322 | 0.0 | 1.6 | 0.00 | 0.00 | 0.00 | 53 | 1026.7 |
| 20260906103023 | 20 | 347 | 0.0 | 4.8 | 0.00 | 0.00 | 0.00 | 52 | 1027.1 |
| 20260906102045 | 21 | 329 | 1.6 | 4.8 | 0.00 | 0.00 | 0.00 | 50 | 1027.1 |
| 20260906101056 | 21 | 327 | 1.6 | 6.4 | 0.00 | 0.00 | 0.00 | 52 | 1027.0 |
| 20260906100025 | 20 | 339 | 0.0 | 1.6 | 0.00 | 0.00 | 0.00 | 54 | 1027.0 |
| 20260906095059 | 20 | 348 | 1.6 | 6.4 | 0.00 | 0.00 | 0.00 | 55 | 1027.0 |
| 20260906094022 | 19 | 279 | 0.0 | 0.0 | 0.00 | 0.00 | 0.00 | 57 | 1027.0 |
| 20260906093024 | 20 | 328 | 1.6 | 4.8 | 0.00 | 0.00 | 0.00 | 55 | 1026.7 |
| 20260906092025 | 19 | 283 | 0.0 | 1.6 | 0.00 | 0.00 | 0.00 | 57 | 1026.6 |
| 20260906091043 | 20 | 5 | 1.6 | 6.4 | 0.00 | 0.00 | 0.00 | 57 | 1026.7 |
| 20260906090024 | 19 | 351 | 1.6 | 6.4 | 0.00 | 0.00 | 0.00 | 56 | 1026.7 |
| 20260906085035 | 18 | 344 | 0.0 | 4.8 | 0.00 | 0.00 | 0.00 | 59 | 1026.6 |
| 20260906084037 | 19 | 345 | 0.0 | 4.8 | 0.00 | 0.00 | 0.00 | 59 | 1026.7 |
| 20260906083042 | 20 | 338 | 1.6 | 4.8 | 0.00 | 0.00 | 0.00 | 57 | 1026.8 |
| 20260906082107 | 19 | 259 | 1.6 | 4.8 | 0.00 | 0.00 | 0.00 | 58 | 1026.7 |
| 20260906081016 | 18 | 320 | 0.0 | 1.6 | 0.00 | 0.00 | 0.00 | 59 | 1026.4 |
| 20260906080049 | 18 | 350 | 1.6 | 8.0 | 0.00 | 0.00 | 0.00 | 60 | 1026.7 |
| 20260906075026 | 18 | 318 | 0.0 | 1.6 | 0.00 | 0.00 | 0.00 | 63 | 1026.7 |
| 20260906074035 | 18 | 353 | 1.6 | 4.8 | 0.00 | 0.00 | 0.00 | 62 | 1026.4 |
| 20260906073024 | 17 | 349 | 1.6 | 3.2 | 0.00 | 0.00 | 0.00 | 65 | 1026.4 |
| 20260906072048 | 17 | 310 | 0.0 | 1.6 | 0.00 | 0.00 | 0.00 | 67 | 1026.4 |
| 20260906071042 | 17 | 303 | 0.0 | 0.0 | 0.00 | 0.00 | 0.00 | 68 | 1026.4 |
| 20260906070053 | 17 | 63 | 0.0 | 1.6 | 0.00 | 0.00 | 0.00 | 68 | 1026.4 |
| 20260906065054 | 17 | 350 | 0.0 | 1.6 | 0.00 | 0.03 | 0.00 | 69 | 1026.4 |
| 20260906064114 | 18 | 340 | 0.0 | 4.8 | 0.00 | 0.03 | 0.00 | 68 | 1026.2 |
| 20260906063041 | 17 | 277 | 0.0 | 1.6 | 0.00 | 0.05 | 0.00 | 70 | 1026.1 |
| 20260906062028 | 16 | 295 | 0.0 | 0.0 | 0.00 | 0.05 | 0.00 | 75 | 1026.0 |
| 20260906061031 | 14 | 314 | 0.0 | 0.0 | 0.00 | 0.05 | 0.00 | 80 | 1025.7 |
| 20260906055031 | 12 | 0.0 | 0.0 | 0.00 | 0.05 | 0.00 | 89 | 1025.9 | |
| 20260906054034 | 11 | 0.0 | 0.0 | 0.00 | 0.05 | 0.00 | 91 | 1025.5 | |
| 20260906053029 | 10 | 0.0 | 0.0 | 0.00 | 0.05 | 0.00 | 92 | 1025.2 | |
| 20260906052110 | 10 | 0.0 | 0.0 | 0.00 | 0.05 | 0.00 | 92 | 1025.1 | |
| 20260906051053 | 9 | 0.0 | 0.0 | 0.00 | 0.05 | 0.00 | 92 | 1024.7 | |
| 20260906050056 | 8 | 0.0 | 0.0 | 0.00 | 0.05 | 0.00 | 92 | 1024.7 | |
| 20260906045030 | 8 | 0.0 | 0.0 | 0.00 | 0.05 | 0.00 | 91 | 1024.7 | |
| 20260906044055 | 8 | 0.0 | 0.0 | 0.00 | 0.05 | 0.00 | 91 | 1024.7 | |
| 20260906043023 | 8 | 0.0 | 0.0 | 0.00 | 0.05 | 0.00 | 91 | 1024.8 | |
| 20260906042044 | 8 | 0.0 | 0.0 | 0.00 | 0.05 | 0.00 | 90 | 1024.8 | |
| 20260906041052 | 8 | 0.0 | 0.0 | 0.00 | 0.05 | 0.00 | 90 | 1024.8 | |
| 20260906040026 | 8 | 0.0 | 0.0 | 0.00 | 0.05 | 0.00 | 90 | 1024.5 | |
| 20260906035043 | 8 | 0.0 | 0.0 | 0.00 | 0.05 | 0.00 | 89 | 1024.5 | |
| 20260906034024 | 9 | 0.0 | 0.0 | 0.00 | 0.05 | 0.00 | 89 | 1024.6 | |
| 20260906033022 | 9 | 259 | 0.0 | 0.0 | 0.00 | 0.05 | 0.00 | 87 | 1024.3 |
| 20260906032023 | 9 | 0.0 | 0.0 | 0.00 | 0.05 | 0.00 | 86 | 1024.4 | |
| 20260906031022 | 9 | 0.0 | 0.0 | 0.00 | 0.05 | 0.00 | 86 | 1024.3 | |
| 20260906030037 | 10 | 0.0 | 0.0 | 0.00 | 0.05 | 0.00 | 85 | 1024.4 | |
| 20260906025031 | 10 | 0.0 | 0.0 | 0.00 | 0.05 | 0.00 | 84 | 1024.4 | |
| 20260906024024 | 10 | 0.0 | 0.0 | 0.00 | 0.05 | 0.00 | 83 | 1024.0 | |
| 20260906023023 | 11 | 0.0 | 0.0 | 0.00 | 0.05 | 0.00 | 82 | 1024.0 | |
| 20260906022041 | 11 | 0.0 | 0.0 | 0.00 | 0.05 | 0.00 | 80 | 1024.1 | |
| 20260906021024 | 11 | 0.0 | 0.0 | 0.00 | 0.05 | 0.00 | 80 | 1024.4 | |
| 20260906020024 | 11 | 0.0 | 0.0 | 0.00 | 0.05 | 0.00 | 79 | 1023.8 | |
| 20260906015022 | 12 | 0.0 | 0.0 | 0.00 | 0.05 | 0.00 | 79 | 1023.8 | |
| 20260906014053 | 12 | 0.0 | 0.0 | 0.00 | 0.05 | 0.00 | 79 | 1024.1 | |
| 20260906013025 | 12 | 0.0 | 0.0 | 0.00 | 0.05 | 0.00 | 78 | 1023.8 | |
| 20260906012059 | 12 | 225 | 0.0 | 0.0 | 0.00 | 0.05 | 0.00 | 77 | 1023.8 |
| 20260906011040 | 12 | 246 | 0.0 | 1.6 | 0.00 | 0.05 | 0.00 | 77 | 1023.7 |
| 20260906010119 | 12 | 263 | 0.0 | 0.0 | 0.00 | 0.05 | 0.00 | 78 | 1023.7 |
| 20260906005058 | 12 | 0.0 | 0.0 | 0.00 | 0.05 | 0.00 | 78 | 1023.7 | |
| 20260906004046 | 12 | 248 | 0.0 | 0.0 | 0.00 | 0.05 | 0.00 | 78 | 1023.3 |
| 20260906003044 | 12 | 254 | 0.0 | 0.0 | 0.00 | 0.05 | 0.00 | 78 | 1023.3 |
| 20260906002022 | 12 | 0.0 | 0.0 | 0.00 | 0.05 | 0.00 | 77 | 1023.4 | |
| 20260906001025 | 12 | 0.0 | 0.0 | 0.00 | 0.05 | 0.00 | 76 | 1023.3 | |
| 20260906000037 | 13 | 0.0 | 0.0 | 0.00 | 0.05 | 0.00 | 75 | 1023.4 | |
| 20260905235048 | 13 | 0.0 | 0.0 | 0.00 | 0.05 | 0.00 | 73 | 1023.4 | |
| 20260905234053 | 13 | 0.0 | 0.0 | 0.00 | 0.05 | 0.00 | 72 | 1023.0 | |
| 20260905233120 | 13 | 0.0 | 0.0 | 0.00 | 0.05 | 0.00 | 71 | 1023.0 | |
| 20260905232029 | 14 | 234 | 0.0 | 0.0 | 0.00 | 0.05 | 0.00 | 71 | 1023.1 |
| 20260905231024 | 14 | 0.0 | 0.0 | 0.00 | 0.05 | 0.00 | 71 | 1023.1 | |
| 20260905230053 | 13 | 0.0 | 0.0 | 0.00 | 0.05 | 0.00 | 71 | 1022.7 | |
| 20260905225044 | 13 | 0.0 | 0.0 | 0.00 | 0.05 | 0.00 | 73 | 1022.7 |